TimePST,TemperatureF,Dew PointF,Humidity,Sea Level PressureIn,VisibilityMPH,Wind Direction,Wind SpeedMPH,Gust SpeedMPH,PrecipitationIn,Events,Conditions,WindDirDegrees,DateUTC
12:56 AM,25.0,23.0,92,30.01,10.0,Calm,Calm,-,N/A,,Scattered Clouds,0,2013-03-08 08:56:00
1:56 AM,21.0,18.0,88,30.03,10.0,Calm,Calm,-,N/A,,Clear,0,2013-03-08 09:56:00
2:56 AM,25.0,23.0,92,30.00,10.0,SSE,3.5,-,N/A,,Overcast,150,2013-03-08 10:56:00
3:56 AM,26.1,24.1,92,29.99,10.0,Calm,Calm,-,N/A,,Overcast,0,2013-03-08 11:56:00
4:56 AM,26.1,24.1,92,30.01,10.0,Calm,Calm,-,N/A,,Overcast,0,2013-03-08 12:56:00
5:56 AM,24.1,21.9,91,30.02,10.0,Calm,Calm,-,N/A,,Overcast,0,2013-03-08 13:56:00
6:56 AM,27.0,24.1,89,30.04,3.0,Calm,Calm,-,0.00,Snow,Light Snow,0,2013-03-08 14:56:00
6:58 AM,26.6,24.8,93,29.97,2.5,Calm,Calm,-,0.00,Snow,Light Snow,0,2013-03-08 14:58:00
7:05 AM,26.6,24.8,93,29.97,0.8,Calm,Calm,-,0.00,Snow,Light Snow,0,2013-03-08 15:05:00
7:25 AM,26.6,26.6,100,29.97,0.5,Calm,Calm,-,0.00,Fog-Snow,Snow,0,2013-03-08 15:25:00
7:39 AM,26.6,26.6,100,29.98,2.0,SE,3.5,-,0.00,Snow,Light Snow,140,2013-03-08 15:39:00
7:44 AM,26.6,24.8,93,29.98,3.0,SSE,3.5,-,0.00,Snow,Light Snow,160,2013-03-08 15:44:00
7:56 AM,28.0,26.1,92,30.04,9.0,Calm,Calm,-,0.00,,Overcast,0,2013-03-08 15:56:00
8:39 AM,30.2,28.4,93,29.99,1.8,Calm,Calm,-,0.00,Snow,Light Snow,0,2013-03-08 16:39:00
8:50 AM,30.2,28.4,93,30.00,2.0,Calm,Calm,-,0.00,Snow,Light Snow,0,2013-03-08 16:50:00
8:56 AM,30.9,28.9,92,30.05,4.0,SSW,3.5,-,0.00,Snow,Light Snow,210,2013-03-08 16:56:00
9:07 AM,30.2,28.4,93,30.00,9.0,SSW,3.5,-,0.00,,Overcast,210,2013-03-08 17:07:00
9:48 AM,33.8,30.2,87,30.00,10.0,WSW,4.6,-,0.00,,Overcast,250,2013-03-08 17:48:00
9:56 AM,33.1,30.0,89,30.05,10.0,West,5.8,-,0.00,,Mostly Cloudy,270,2013-03-08 17:56:00
10:56 AM,39.0,30.9,73,30.04,10.0,WNW,8.1,-,N/A,,Mostly Cloudy,300,2013-03-08 18:56:00
11:56 AM,41.0,30.9,67,30.05,10.0,West,8.1,-,N/A,,Mostly Cloudy,260,2013-03-08 19:56:00
12:56 PM,44.1,28.9,55,30.03,10.0,Variable,5.8,-,N/A,,Mostly Cloudy,0,2013-03-08 20:56:00
1:03 PM,44.6,28.4,53,29.98,10.0,Variable,6.9,-,N/A,,Mostly Cloudy,0,2013-03-08 21:03:00
1:56 PM,46.9,26.1,44,30.02,10.0,NW,10.4,-,N/A,,Mostly Cloudy,320,2013-03-08 21:56:00
2:56 PM,48.0,27.0,44,30.01,10.0,NW,12.7,-,N/A,,Mostly Cloudy,320,2013-03-08 22:56:00
3:56 PM,48.0,26.1,42,30.01,10.0,NNE,12.7,18.4,N/A,,Mostly Cloudy,20,2013-03-08 23:56:00
4:11 PM,41.0,28.4,61,29.98,2.5,Variable,5.8,-,0.02,Rain,Light Rain,0,2013-03-09 00:11:00
4:18 PM,41.0,28.4,61,29.99,6.0,SE,5.8,-,0.02,Rain,Light Rain,130,2013-03-09 00:18:00
4:56 PM,44.1,27.0,51,30.04,10.0,WNW,3.5,-,0.02,,Mostly Cloudy,300,2013-03-09 00:56:00
5:56 PM,42.1,26.1,53,30.07,10.0,North,6.9,-,N/A,,Overcast,350,2013-03-09 01:56:00
6:56 PM,35.1,25.0,67,30.11,10.0,Calm,Calm,-,N/A,,Clear,0,2013-03-09 02:56:00
7:56 PM,30.9,23.0,72,30.14,10.0,Calm,Calm,-,N/A,,Clear,0,2013-03-09 03:56:00
8:56 PM,26.1,21.9,84,30.17,10.0,Calm,Calm,-,N/A,,Clear,0,2013-03-09 04:56:00
9:56 PM,26.1,19.9,78,30.19,10.0,SW,4.6,-,N/A,,Clear,230,2013-03-09 05:56:00
10:56 PM,23.0,19.0,85,30.19,10.0,Calm,Calm,-,N/A,,Clear,0,2013-03-09 06:56:00
11:56 PM,19.9,17.1,89,30.21,10.0,Calm,Calm,-,N/A,,Clear,0,2013-03-09 07:56:00